Regional Weather Roundup
Issued by NWS

Home | Current Version | Previous Version | Graphics & Text | Print | Product List | Glossary On
Versions: 1 2 3 4 5 6 7 8 9 10 11 12 13 14 15 16 17 18 19 20 21 22 23 24 25 26 27 28 29 30 31 32 33 34 35 36 37 38 39 40 41 42 43 44 45 46 47 48 49 50
589
ASUS45 KBOI 262310
RWRID

IDAHO REGIONAL WEATHER ROUNDUP
NATIONAL WEATHER SERVICE BOISE ID
500 PM MDT MON SEP 26 2016

NOTE: "FAIR" INDICATES FEW OR NO CLOUDS BELOW 12000 FEET
WITH NO SIGNIFICANT WEATHER AND/OR OBSTRUCTIONS TO VISIBILITY

IDZ012-014-270000-
SOUTHWEST IDAHO


CITY           SKY/WX    TMP DP  RH WIND       PRES   REMARKS
BOISE          SUNNY     84  37  18 S5        30.18F
CALDWELL       SUNNY     83  40  21 E5        30.16F
MOUNTAIN HOME  SUNNY     82  43  25 E9        30.18F
$$

IDZ016-017-270000-
SOUTHCENTRAL IDAHO


CITY           SKY/WX    TMP DP  RH WIND       PRES   REMARKS
BURLEY         SUNNY     76  41  28 E8        30.26F
JEROME         MOSUNNY   78  40  25 E7        30.27F
TWIN FALLS     SUNNY     76  45  33 NE7       30.27F
$$

IDZ019>023-270000-
SOUTHEAST IDAHO


CITY           SKY/WX    TMP DP  RH WIND       PRES   REMARKS
IDAHO FALLS    CLOUDY    71  38  29 CALM      30.33F
POCATELLO      SUNNY     74  43  32 NW8       30.32F
REXBURG        CLOUDY    69  39  33 CALM      30.33F
$$

IDZ006-010-011-018-031-032-270000-
CENTRAL IDAHO MOUNTAINS


CITY           SKY/WX    TMP DP  RH WIND       PRES   REMARKS
MCCALL         SUNNY     75  41  29 W10       30.29F
HAILEY         MOSUNNY   72  46  40 SE12      30.36F
STANLEY          N/A     75  31  19 VRB3      30.36F
SALMON         SUNNY     73  45  35 CALM      30.23F
CHALLIS        SUNNY     77  35  21 CALM      30.28F
$$

IDZ002-004-006-007-026-270000-
NORTHERN IDAHO


CITY           SKY/WX    TMP DP  RH WIND       PRES   REMARKS
LEWISTON       SUNNY     90  45  21 NE5       30.04F
LOWELL           N/A     74  57  55 N3        30.08F
COEUR D`ALENE  NOT AVBL
MULLAN PASS    SUNNY     68  41  37 VRB5      30.32F
$$




USA.gov is the U.S. government's official web portal to all federal, state and local government web resources and services.